カタログに戻る

STARLINK-5577

運用中通信VLEO
NORAD 55751·PAYLOAD·🇺🇸 United States

打ち上げ Mar 3, 2023 から Vandenberg Space Force Base

Loading…

次のパス (今後24時間)

TLE

最新Source: CelesTrak SupGP

元期: Sep 14, 2026, 21:17 UTC

1 55751C 23028L   26257.88729167 -.00015702  00000+0 -13160-2 0  2574
2 55751  70.0000 127.5151 0002752 271.0669 241.6558 14.98337253    18

AllMySatでSTARLINK-5577をリアルタイム追跡

Download on the App Store